| time (UTC) | temp C | wind direction | speed KPH | gust KPH | rain 1hr cm | rain 24hr cm | rain mn cm | humidity % | barometer mb |
| 20260504190038 | 21 | 135 | 4.8 | 6.4 | 0.00 | 0.00 | 0.00 | ||
| 20260504185637 | 21 | 135 | 4.8 | 6.4 | 0.00 | 0.00 | 0.00 | ||
| 20260504185234 | 21 | 135 | 4.8 | 8.0 | 0.00 | 0.00 | 0.00 | ||
| 20260504184833 | 21 | 135 | 4.8 | 8.0 | 0.00 | 0.00 | 0.00 | ||
| 20260504184431 | 21 | 157 | 3.2 | 8.0 | 0.00 | 0.00 | 0.00 | ||
| 20260504184031 | 21 | 157 | 3.2 | 8.0 | 0.00 | 0.00 | 0.00 | ||
| 20260504183628 | 21 | 157 | 4.8 | 8.0 | 0.00 | 0.00 | 0.00 | ||
| 20260504183227 | 22 | 157 | 6.4 | 8.0 | 0.00 | 0.00 | 0.00 | ||
| 20260504182819 | 22 | 180 | 6.4 | 9.7 | 0.00 | 0.00 | 0.00 | ||
| 20260504182417 | 22 | 180 | 6.4 | 9.7 | 0.00 | 0.00 | 0.00 | ||
| 20260504182016 | 22 | 157 | 4.8 | 8.0 | 0.00 | 0.00 | 0.00 | ||
| 20260504181614 | 22 | 159 | 4.8 | 8.0 | 0.00 | 0.00 | 0.00 | ||
| 20260504181212 | 22 | 188 | 6.4 | 12.9 | 0.00 | 0.00 | 0.00 | ||
| 20260504180811 | 22 | 185 | 4.8 | 6.4 | 0.00 | 0.00 | 0.00 | ||
| 20260504180409 | 22 | 198 | 6.4 | 9.7 | 0.00 | 0.00 | 0.00 | ||
| 20260504180007 | 23 | 180 | 6.4 | 11.3 | 0.00 | 0.00 | 0.00 | ||
| 20260504175606 | 22 | 192 | 8.0 | 14.5 | 0.00 | 0.00 | 0.00 | ||
| 20260504175204 | 23 | 202 | 6.4 | 9.7 | 0.00 | 0.00 | 0.00 | ||
| 20260504174756 | 23 | 198 | 6.4 | 11.3 | 0.00 | 0.00 | 0.00 | ||
| 20260504174353 | 23 | 202 | 8.0 | 12.9 | 0.00 | 0.00 | 0.00 | ||
| 20260504173952 | 23 | 207 | 9.7 | 14.5 | 0.00 | 0.00 | 0.00 | ||
| 20260504173551 | 23 | 202 | 9.7 | 16.1 | 0.00 | 0.00 | 0.00 | ||
| 20260504173149 | 23 | 197 | 11.3 | 17.7 | 0.00 | 0.00 | 0.00 | ||
| 20260504172747 | 23 | 199 | 11.3 | 16.1 | 0.00 | 0.00 | 0.00 | ||
| 20260504172345 | 23 | 200 | 14.5 | 25.7 | 0.00 | 0.00 | 0.00 | ||
| 20260504171944 | 23 | 200 | 14.5 | 20.9 | 0.00 | 0.00 | 0.00 | ||
| 20260504171543 | 23 | 201 | 16.1 | 25.7 | 0.00 | 0.00 | 0.00 | ||
| 20260504171141 | 23 | 207 | 12.9 | 20.9 | 0.00 | 0.00 | 0.00 | ||
| 20260504170732 | 23 | 211 | 16.1 | 20.9 | 0.00 | 0.00 | 0.00 | ||
| 20260504170330 | 24 | 209 | 14.5 | 22.5 | 0.00 | 0.00 | 0.00 | ||
| 20260504160300 | 27 | 193 | 9.7 | 16.1 | 0.00 | 0.00 | 0.00 | ||
| 20260504151032 | 27 | 167 | 11.3 | 16.1 | 0.00 | 0.00 | 0.00 | ||
| 20260504150624 | 27 | 197 | 16.1 | 24.1 | 0.00 | 0.00 | 0.00 | ||
| 20260504150222 | 27 | 176 | 14.5 | 19.3 | 0.00 | 0.00 | 0.00 | ||
| 20260504140954 | 27 | 166 | 14.5 | 17.7 | 0.00 | 0.00 | 0.00 | ||
| 20260504140553 | 27 | 162 | 17.7 | 25.7 | 0.00 | 0.00 | 0.00 | ||
| 20260504140150 | 27 | 164 | 19.3 | 25.7 | 0.00 | 0.00 | 0.00 | ||
| 20260504130513 | 26 | 189 | 12.9 | 19.3 | 0.00 | 0.00 | 0.00 | ||
| 20260504130111 | 26 | 207 | 11.3 | 17.7 | 0.00 | 0.00 | 0.00 | ||
| 20260504110403 | 26 | 158 | 16.1 | 22.5 | 0.00 | 0.00 | 0.00 | ||
| 20260504100333 | 25 | 182 | 16.1 | 20.9 | 0.00 | 0.00 | 0.00 | ||
| 20260504081829 | 22 | 151 | 17.7 | 29.0 | 0.00 | 0.00 | 0.00 | ||
| 20260504081428 | 22 | 150 | 16.1 | 25.7 | 0.00 | 0.00 | 0.00 | ||
| 20260504081027 | 22 | 135 | 17.7 | 27.4 | 0.00 | 0.00 | 0.00 | ||
| 20260504080743 | 22 | 151 | 16.1 | 27.4 | 0.00 | 0.00 | 0.00 | ||
| 20260504080625 | 22 | 151 | 16.1 | 27.4 | 0.00 | 0.00 | 0.00 | ||
| 20260504080224 | 22 | 144 | 16.1 | 20.9 | 0.00 | 0.00 | 0.00 | ||
| 20260504070145 | 23 | 164 | 14.5 | 20.9 | 0.00 | 0.00 | 0.00 | ||
| 20260504060114 | 20 | 148 | 14.5 | 22.5 | 0.00 | 0.00 | 0.00 | ||
| 20260504050442 | 18 | 145 | 16.1 | 24.1 | 0.00 | 0.00 | 0.00 | ||
| 20260504045633 | 18 | 144 | 16.1 | 25.7 | 0.00 | 0.00 | 0.00 | ||
| 20260504045230 | 18 | 137 | 17.7 | 25.7 | 0.00 | 0.00 | 0.00 | ||
| 20260504044829 | 17 | 136 | 16.1 | 32.2 | 0.00 | 0.00 | 0.00 | ||
| 20260504044428 | 18 | 137 | 11.3 | 19.3 | 0.00 | 0.00 | 0.00 | ||
| 20260504044027 | 17 | 158 | 17.7 | 22.5 | 0.00 | 0.00 | 0.00 | ||
| 20260504043625 | 17 | 141 | 11.3 | 16.1 | 0.00 | 0.00 | 0.00 | ||
| 20260504043223 | 17 | 148 | 14.5 | 20.9 | 0.00 | 0.00 | 0.00 | ||
| 20260504042822 | 17 | 139 | 16.1 | 24.1 | 0.00 | 0.00 | 0.00 | ||
| 20260504042420 | 17 | 150 | 14.5 | 20.9 | 0.00 | 0.00 | 0.00 | ||
| 20260504042012 | 17 | 145 | 12.9 | 17.7 | 0.00 | 0.00 | 0.00 | ||
| 20260504041609 | 17 | 150 | 12.9 | 17.7 | 0.00 | 0.00 | 0.00 | ||
| 20260504041208 | 17 | 139 | 14.5 | 24.1 | 0.00 | 0.00 | 0.00 | ||
| 20260504040807 | 17 | 146 | 12.9 | 17.7 | 0.00 | 0.00 | 0.00 | ||
| 20260504040405 | 16 | 150 | 12.9 | 19.3 | 0.00 | 0.00 | 0.00 | ||
| 20260504040003 | 16 | 143 | 12.9 | 20.9 | 0.00 | 0.00 | 0.00 | ||
| 20260504035601 | 16 | 148 | 12.9 | 17.7 | 0.00 | 0.00 | 0.00 | ||
| 20260504035200 | 16 | 141 | 11.3 | 19.3 | 0.00 | 0.00 | 0.00 | ||
| 20260504034759 | 16 | 141 | 12.9 | 19.3 | 0.00 | 0.00 | 0.00 | ||
| 20260504034356 | 16 | 141 | 12.9 | 17.7 | 0.00 | 0.00 | 0.00 | ||
| 20260504033948 | 16 | 150 | 12.9 | 16.1 | 0.00 | 0.00 | 0.00 | ||
| 20260504033546 | 16 | 148 | 12.9 | 17.7 | 0.00 | 0.00 | 0.00 | ||
| 20260504033145 | 16 | 153 | 14.5 | 25.7 | 0.00 | 0.00 | 0.00 | ||
| 20260504032744 | 16 | 141 | 16.1 | 22.5 | 0.00 | 0.00 | 0.00 | ||
| 20260504032341 | 16 | 136 | 16.1 | 20.9 | 0.00 | 0.00 | 0.00 | ||
| 20260504031940 | 16 | 143 | 14.5 | 19.3 | 0.00 | 0.00 | 0.00 | ||
| 20260504031538 | 15 | 144 | 14.5 | 20.9 | 0.00 | 0.00 | 0.00 | ||
| 20260504031137 | 16 | 136 | 14.5 | 19.3 | 0.00 | 0.00 | 0.00 | ||
| 20260504030735 | 16 | 139 | 17.7 | 22.5 | 0.00 | 0.00 | 0.00 | ||
| 20260504030333 | 16 | 139 | 14.5 | 22.5 | 0.00 | 0.00 | 0.00 | ||
| 20260504025524 | 16 | 142 | 16.1 | 20.9 | 0.00 | 0.00 | 0.00 | ||
| 20260504025121 | 15 | 141 | 12.9 | 16.1 | 0.00 | 0.00 | 0.00 | ||
| 20260504024720 | 16 | 141 | 12.9 | 20.9 | 0.00 | 0.00 | 0.00 | ||
| 20260504024319 | 16 | 143 | 14.5 | 20.9 | 0.00 | 0.00 | 0.00 | ||
| 20260504023918 | 15 | 141 | 14.5 | 22.5 | 0.00 | 0.00 | 0.00 | ||
| 20260504023515 | 15 | 137 | 12.9 | 17.7 | 0.00 | 0.00 | 0.00 | ||
| 20260504023114 | 16 | 133 | 14.5 | 25.7 | 0.00 | 0.00 | 0.00 | ||
| 20260504022713 | 16 | 145 | 14.5 | 20.9 | 0.00 | 0.00 | 0.00 | ||
| 20260504022311 | 16 | 135 | 12.9 | 17.7 | 0.00 | 0.00 | 0.00 | ||
| 20260504021903 | 16 | 137 | 14.5 | 20.9 | 0.00 | 0.00 | 0.00 | ||
| 20260504021500 | 16 | 130 | 11.3 | 16.1 | 0.00 | 0.00 | 0.00 | ||
| 20260504021059 | 16 | 135 | 11.3 | 16.1 | 0.00 | 0.00 | 0.00 | ||
| 20260504020658 | 16 | 148 | 16.1 | 29.0 | 0.00 | 0.00 | 0.00 | ||
| 20260504020256 | 16 | 137 | 11.3 | 17.7 | 0.00 | 0.00 | 0.00 | ||
| 20260504015854 | 16 | 137 | 14.5 | 22.5 | 0.00 | 0.00 | 0.00 | ||
| 20260504015452 | 16 | 137 | 12.9 | 19.3 | 0.00 | 0.00 | 0.00 | ||
| 20260504015051 | 16 | 138 | 11.3 | 16.1 | 0.00 | 0.00 | 0.00 | ||
| 20260504014650 | 16 | 138 | 9.7 | 16.1 | 0.00 | 0.00 | 0.00 | ||
| 20260504014247 | 16 | 131 | 14.5 | 20.9 | 0.00 | 0.00 | 0.00 | ||
| 20260504013839 | 16 | 136 | 11.3 | 14.5 | 0.00 | 0.00 | 0.00 | ||
| 20260504013437 | 16 | 138 | 14.5 | 19.3 | 0.00 | 0.00 | 0.00 | ||
| 20260504013036 | 16 | 138 | 14.5 | 19.3 | 0.00 | 0.00 | 0.00 | ||
| 20260504012634 | 16 | 135 | 12.9 | 19.3 | 0.00 | 0.00 | 0.00 | ||
| 20260504012233 | 16 | 137 | 12.9 | 19.3 | 0.00 | 0.00 | 0.00 | ||
| 20260504011832 | 16 | 129 | 11.3 | 19.3 | 0.00 | 0.00 | 0.00 | ||
| 20260504011430 | 16 | 133 | 12.9 | 25.7 | 0.00 | 0.00 | 0.00 | ||
| 20260504011029 | 16 | 143 | 9.7 | 16.1 | 0.00 | 0.00 | 0.00 | ||
| 20260504010627 | 16 | 144 | 6.4 | 9.7 | 0.00 | 0.00 | 0.00 | ||
| 20260504010225 | 16 | 153 | 9.7 | 14.5 | 0.00 | 0.00 | 0.00 | ||
| 20260504005817 | 16 | 152 | 11.3 | 17.7 | 0.00 | 0.00 | 0.00 | ||
| 20260504005415 | 16 | 152 | 8.0 | 12.9 | 0.00 | 0.00 | 0.00 | ||
| 20260504005013 | 16 | 147 | 8.0 | 14.5 | 0.00 | 0.00 | 0.00 | ||
| 20260504004612 | 16 | 157 | 6.4 | 12.9 | 0.00 | 0.00 | 0.00 | ||
| 20260504004210 | 16 | 156 | 8.0 | 11.3 | 0.00 | 0.00 | 0.00 | ||
| 20260504003809 | 16 | 145 | 8.0 | 12.9 | 0.00 | 0.00 | 0.00 | ||
| 20260504003406 | 16 | 154 | 9.7 | 14.5 | 0.00 | 0.00 | 0.00 | ||
| 20260504003005 | 16 | 141 | 6.4 | 14.5 | 0.00 | 0.00 | 0.00 | ||
| 20260504002604 | 16 | 134 | 8.0 | 14.5 | 0.00 | 0.00 | 0.00 | ||
| 20260504002202 | 16 | 140 | 8.0 | 16.1 | 0.00 | 0.00 | 0.00 | ||
| 20260504001753 | 16 | 151 | 9.7 | 17.7 | 0.00 | 0.00 | 0.00 | ||
| 20260504001351 | 16 | 139 | 8.0 | 12.9 | 0.00 | 0.00 | 0.00 | ||
| 20260504000950 | 16 | 141 | 8.0 | 14.5 | 0.00 | 0.00 | 0.00 | ||
| 20260504000549 | 16 | 148 | 11.3 | 17.7 | 0.00 | 0.00 | 0.00 | ||
| 20260504000148 | 16 | 135 | 9.7 | 16.1 | 0.00 | 0.00 | 0.00 | ||
| 20260503235344 | 16 | 146 | 12.9 | 19.3 | 0.00 | 0.00 | 0.00 | ||
| 20260503235211 | 16 | 145 | 12.9 | 20.9 | 0.00 | 0.00 | 0.00 | ||
| 20260503234943 | 16 | 144 | 12.9 | 19.3 | 0.00 | 0.00 | 0.00 | ||
| 20260503234542 | 16 | 145 | 12.9 | 20.9 | 0.00 | 0.00 | 0.00 | ||
| 20260503234139 | 16 | 146 | 12.9 | 17.7 | 0.00 | 0.00 | 0.00 | ||
| 20260503233731 | 16 | 143 | 12.9 | 17.7 | 0.00 | 0.00 | 0.00 | ||
| 20260503233329 | 16 | 150 | 12.9 | 20.9 | 0.00 | 0.00 | 0.00 | ||
| 20260503232928 | 16 | 151 | 14.5 | 25.7 | 0.00 | 0.00 | 0.00 | ||
| 20260503232526 | 16 | 155 | 11.3 | 16.1 | 0.00 | 0.00 | 0.00 | ||
| 20260503232124 | 16 | 146 | 11.3 | 16.1 | 0.00 | 0.00 | 0.00 | ||
| 20260503231723 | 16 | 150 | 14.5 | 17.7 | 0.00 | 0.00 | 0.00 | ||
| 20260503231321 | 16 | 150 | 11.3 | 19.3 | 0.00 | 0.00 | 0.00 | ||
| 20260503230919 | 16 | 144 | 11.3 | 14.5 | 0.00 | 0.00 | 0.00 | ||
| 20260503230518 | 16 | 135 | 9.7 | 17.7 | 0.00 | 0.00 | 0.00 | ||
| 20260503230116 | 16 | 153 | 11.3 | 16.1 | 0.00 | 0.00 | 0.00 | ||
| 20260503225708 | 16 | 138 | 9.7 | 16.1 | 0.00 | 0.00 | 0.00 | ||
| 20260503225306 | 16 | 141 | 9.7 | 12.9 | 0.00 | 0.00 | 0.00 | ||
| 20260503224904 | 16 | 145 | 9.7 | 14.5 | 0.00 | 0.00 | 0.00 | ||
| 20260503224503 | 16 | 150 | 11.3 | 16.1 | 0.00 | 0.00 | 0.00 | ||
| 20260503224101 | 16 | 157 | 11.3 | 16.1 | 0.00 | 0.00 | 0.00 | ||
| 20260503223700 | 16 | 153 | 11.3 | 17.7 | 0.00 | 0.00 | 0.00 | ||
| 20260503223257 | 17 | 153 | 11.3 | 17.7 | 0.00 | 0.00 | 0.00 | ||
| 20260503222856 | 17 | 144 | 11.3 | 19.3 | 0.00 | 0.00 | 0.00 | ||
| 20260503222455 | 17 | 151 | 9.7 | 16.1 | 0.00 | 0.00 | 0.00 | ||
| 20260503222053 | 17 | 151 | 9.7 | 12.9 | 0.00 | 0.00 | 0.00 | ||
| 20260503221644 | 17 | 151 | 11.3 | 17.7 | 0.00 | 0.00 | 0.00 | ||
| 20260503221242 | 17 | 146 | 8.0 | 14.5 | 0.00 | 0.00 | 0.00 | ||
| 20260503220841 | 17 | 151 | 11.3 | 16.1 | 0.00 | 0.00 | 0.00 | ||
| 20260503220540 | 16 | 148 | 8.0 | 14.5 | 0.00 | 0.00 | 0.00 | ||
| 20260503220440 | 16 | 148 | 8.0 | 14.5 | 0.00 | 0.00 | 0.00 | ||
| 20260503220036 | 17 | 136 | 9.7 | 14.5 | 0.00 | 0.00 | 0.00 | ||
| 20260503215638 | 16 | 157 | 8.0 | 11.3 | 0.00 | 0.00 | 0.00 | ||
| 20260503215635 | 17 | 145 | 9.7 | 16.1 | 0.00 | 0.00 | 0.00 | ||
| 20260503215233 | 16 | 157 | 8.0 | 11.3 | 0.00 | 0.00 | 0.00 | ||
| 20260503214832 | 17 | 168 | 9.7 | 12.9 | 0.00 | 0.00 | 0.00 | ||
| 20260503214431 | 17 | 151 | 6.4 | 11.3 | 0.00 | 0.00 | 0.00 | ||
| 20260503214027 | 17 | 157 | 6.4 | 8.0 | 0.00 | 0.00 | 0.00 | ||
| 20260503213620 | 17 | 157 | 6.4 | 12.9 | 0.00 | 0.00 | 0.00 | ||
| 20260503213218 | 17 | 158 | 6.4 | 9.7 | 0.00 | 0.00 | 0.00 | ||
| 20260503212817 | 17 | 176 | 6.4 | 11.3 | 0.00 | 0.00 | 0.00 | ||
| 20260503212013 | 17 | 157 | 4.8 | 8.0 | 0.00 | 0.00 | 0.00 | ||
| 20260503211612 | 17 | 157 | 6.4 | 9.7 | 0.00 | 0.00 | 0.00 | ||
| 20260503211210 | 17 | 157 | 6.4 | 14.5 | 0.00 | 0.00 | 0.00 | ||
| 20260503210808 | 17 | 178 | 6.4 | 8.0 | 0.00 | 0.00 | 0.00 | ||
| 20260503210407 | 17 | 170 | 11.3 | 14.5 | 0.00 | 0.00 | 0.00 | ||
| 20260503210006 | 17 | 154 | 6.4 | 11.3 | 0.00 | 0.00 | 0.00 | ||
| 20260503205557 | 17 | 135 | 6.4 | 11.3 | 0.00 | 0.00 | 0.00 | ||
| 20260503205154 | 17 | 135 | 6.4 | 9.7 | 0.00 | 0.00 | 0.00 | ||
| 20260503204753 | 17 | 127 | 8.0 | 9.7 | 0.00 | 0.00 | 0.00 | ||
| 20260503204352 | 17 | 135 | 6.4 | 11.3 | 0.00 | 0.00 | 0.00 | ||
| 20260503203950 | 17 | 135 | 6.4 | 9.7 | 0.00 | 0.00 | 0.00 | ||
| 20260503203549 | 17 | 135 | 6.4 | 9.7 | 0.00 | 0.00 | 0.00 | ||
| 20260503203146 | 17 | 141 | 6.4 | 11.3 | 0.00 | 0.00 | 0.00 | ||
| 20260503202745 | 17 | 137 | 4.8 | 11.3 | 0.00 | 0.00 | 0.00 | ||
| 20260503202345 | 17 | 145 | 8.0 | 12.9 | 0.00 | 0.00 | 0.00 | ||
| 20260503201943 | 17 | 147 | 6.4 | 9.7 | 0.00 | 0.00 | 0.00 | ||
| 20260503201533 | 17 | 141 | 6.4 | 14.5 | 0.00 | 0.00 | 0.00 | ||
| 20260503201132 | 18 | 147 | 8.0 | 12.9 | 0.00 | 0.00 | 0.00 | ||
| 20260503200731 | 18 | 140 | 8.0 | 11.3 | 0.00 | 0.00 | 0.00 | ||
| 20260503200330 | 18 | 154 | 6.4 | 11.3 | 0.00 | 0.00 | 0.00 | ||
| 20260503195927 | 18 | 157 | 8.0 | 12.9 | 0.00 | 0.00 | 0.00 | ||
| 20260503195526 | 18 | 150 | 8.0 | 12.9 | 0.00 | 0.00 | 0.00 | ||
| 20260503195124 | 18 | 156 | 9.7 | 14.5 | 0.00 | 0.00 | 0.00 | ||
| 20260503194723 | 18 | 157 | 9.7 | 14.5 | 0.00 | 0.00 | 0.00 | ||
| 20260503194321 | 18 | 157 | 8.0 | 12.9 | 0.00 | 0.00 | 0.00 | ||
| 20260503193919 | 19 | 156 | 8.0 | 14.5 | 0.00 | 0.00 | 0.00 | ||
| 20260503193511 | 19 | 165 | 9.7 | 12.9 | 0.00 | 0.00 | 0.00 | ||
| 20260503193109 | 20 | 161 | 9.7 | 16.1 | 0.00 | 0.00 | 0.00 | ||
| 20260503192708 | 20 | 165 | 8.0 | 11.3 | 0.00 | 0.00 | 0.00 | ||
| 20260503192306 | 20 | 174 | 11.3 | 16.1 | 0.00 | 0.00 | 0.00 | ||
| 20260503191904 | 20 | 191 | 9.7 | 12.9 | 0.00 | 0.00 | 0.00 | ||
| 20260503191503 | 20 | 172 | 11.3 | 16.1 | 0.00 | 0.00 | 0.00 | ||
| 20260503191101 | 20 | 191 | 9.7 | 14.5 | 0.00 | 0.00 | 0.00 | ||
| 20260503190659 | 20 | 186 | 9.7 | 16.1 | 0.00 | 0.00 | 0.00 |